Temperature
9 10 11 12 13 14 14 14 13 14 13 13 13 14 15 15 15 15 15 15 15 14 13 14 15 15 16 16 16 16 17 17 17 16 16 17 17 17 18 18 18 17 17 16
9 10 12 13 13 12 13 13 13 12 12 13 13 14 15 14 14 13 13 13 13 13 12 12 13 14 15 15 16 16 16 16 16 16 16 16 16 16 17 17 17 17 17 16
10 11 12 12 12 12 12 13 13 12 11 11 12 14 14 13 12 11 11 11 11 11 11 11 12 12 13 14 14 15 15 16 16 16 16 15 15 15 15 16 16 17 17 16
9 10 11 11 12 12 12 12 12 12 13 13 12 15 14 13 12 12 11 11 11 10 10 10 11 11 12 13 13 14 14 15 15 15 15 15 14 14 15 16 16 17 16 16
8 9 10 11 12 12 11 11 11 11 12 12 12 13 15 13 13 12 12 11 11 10 10 10 10 11 12 12 13 13 14 14 14 14 15 14 14 13 14 14 14 15 15 15
7 8 9 10 10 11 10 10 10 10 11 11 12 13 15 14 13 13 12 11 11 10 10 10 10 10 11 12 12 13 13 13 14 14 14 14 14 14 13 13 13 13 14 14
6 6 7 8 8 7 9 10 10 10 10 12 10 11 14 13 12 12 12 11 10 10 10 9 9 10 10 11 11 12 12 12 13 13 13 13 13 13 13 13 13 13 13 13
7 7 6 7 8 7 9 10 11 12 12 12 9 11 13 12 11 10 10 10 10 10 9 9 8 8 9 9 10 10 10 11 11 12 12 12 12 13 13 13 13 13 13 12
9 7 7 7 8 9 8 9 10 11 10 12 12 12 12 12 11 11 11 11 11 10 9 8 7 8 8 8 8 9 9 9 10 10 11 11 11 12 12 12 12 12 12 12
9 7 7 7 8 7 9 9 9 9 10 13 13 13 13 12 12 12 12 11 10 9 8 7 7 7 7 7 7 8 8 8 8 9 9 10 10 10 11 11 12 12 12 12
9 8 7 8 8 8 8 8 9 10 10 11 13 14 13 13 13 12 12 11 10 9 7 6 6 6 6 6 7 7 7 7 7 8 8 8 9 9 10 10 11 11 11 11
9 9 7 7 7 8 9 9 9 9 8 9 11 13 12 12 12 11 11 10 9 7 6 5 4 5 5 6 6 6 6 7 7 7 7 7 8 8 9 9 10 10 10 10
9 8 7 7 7 7 8 8 8 8 8 8 11 13 11 11 11 11 10 9 8 6 5 4 4 4 4 5 5 5 6 6 6 6 6 7 7 7 8 8 9 9 9 9
9 8 8 9 9 8 7 7 7 7 8 9 10 12 12 12 12 11 10 9 7 5 4 3 3 3 3 4 4 4 5 5 5 5 6 6 6 6 7 7 7 8 8 8
9 7 6 7 7 7 7 7 7 7 8 9 10 10 11 12 11 10 9 8 6 5 3 2 2 2 2 3 3 3 4 4 4 4 5 5 5 5 5 6 6 6 6 6
9 7 6 6 7 7 6 7 7 7 8 9 9 9 11 11 10 9 9 7 5 4 2 1 1 1 1 1 2 2 2 3 3 3 3 3 3 4 4 4 4 5 5 5
8 7 6 7 7 6 7 8 8 7 8 9 9 10 11 11 10 9 7 6 4 3 2 1 1 0 0 1 1 1 1 1 2 2 2 2 2 2 2 3 3 3 3 3
8 7 7 7 7 6 10 9 9 8 9 9 9 10 11 10 9 7 5 4 3 2 1 1 1 0 0 0 1 0 0 0 1 1 1 1 1 1 1 1 1 1 1 1
9 8 7 7 7 8 10 9 8 8 9 10 9 10 10 9 8 6 5 4 3 2 2 1 1 1 1 0 0 0 0 0 0 -0 -0 -0 -0 -0 -0 -0 -0 -0 -0 -1
7 8 7 7 7 8 10 9 8 9 10 10 9 10 9 8 10 10 5 4 3 3 2 2 1 1 1 1 1 1 0 0 -0 -0 -1 -1 -1 -0 -1 -1 -1 -1 -1 -1
6 6 6 7 7 9 10 9 8 9 10 10 9 9 8 8 9 7 5 4 4 3 3 2 2 2 2 1 1 1 1 0 0 -0 -0 -0 -0 -0 -1 -1 -1 -1 -1 -1
7 7 7 7 7 9 9 8 9 10 9 9 8 8 7 7 6 6 5 4 4 4 3 3 3 2 2 2 1 1 1 1 0 0 0 0 -0 -0 -1 -1 -1 -1 -1 -1
8 9 9 9 9 10 8 9 9 8 8 8 8 8 7 6 6 5 5 4 4 4 4 3 3 3 2 2 2 2 1 1 1 1 0 0 -0 -0 -1 -1 -1 -1 -1 -1
8 8 8 8 9 9 8 8 8 8 8 8 8 8 7 7 6 6 5 5 4 4 4 4 3 3 3 2 2 2 1 1 1 1 0 0 -0 -0 -1 -1 -1 -1 -2 -2
8 7 8 8 9 8 8 8 8 8 8 8 8 8 7 7 7 6 6 5 5 4 4 4 4 3 3 2 2 2 1 1 0 0 0 -0 -0 -1 -1 -1 -2 -2 -2 -3
7 7 8 9 9 9 9 7 7 7 7 7 7 7 7 7 7 6 6 5 5 4 4 4 4 3 3 2 2 1 1 0 0 0 -0 -0 -1 -1 -1 -2 -2 -2 -3 -3
Wind_Speed
13 12 17 21 18 7 14 14 12 10 5 7 10 12 12 12 12 13 13 11 10 8 6 6 6 6 6 7 8 10 11 12 12 11 13 13 14 15 14 14 18 19 19 20
11 15 17 16 13 8 13 13 11 6 4 4 6 11 11 8 8 7 6 5 4 2 2 3 4 4 4 5 6 7 9 10 12 12 13 13 14 13 14 13 14 19 20 20
11 10 15 17 16 11 11 11 10 6 5 3 4 6 4 3 3 3 3 3 4 4 5 6 6 6 6 6 6 6 7 8 10 11 11 11 12 12 12 13 14 17 20 20
5 9 16 18 17 13 9 6 7 6 5 3 2 3 4 5 7 7 8 7 7 6 6 6 7 8 7 7 7 7 7 8 8 8 10 14 14 16 17 15 15 16 18 18
5 10 18 18 15 12 6 7 6 3 3 2 4 5 4 7 9 8 7 6 6 6 6 7 8 8 8 8 7 7 7 7 7 7 9 12 15 15 14 15 17 17 16 17
5 3 4 7 5 8 11 8 6 3 2 5 6 7 6 8 9 9 6 4 4 6 6 7 7 8 8 9 9 8 9 8 7 7 8 10 14 15 16 17 16 15 13 13
5 4 3 4 8 5 6 7 4 4 5 5 4 5 5 7 6 6 4 1 4 6 7 8 9 9 10 10 10 10 10 10 10 9 9 9 11 14 16 17 16 16 14 13
5 4 2 2 4 7 8 6 4 5 6 4 4 6 3 5 3 4 5 4 4 6 7 7 8 9 10 10 11 11 11 11 11 11 10 10 10 10 11 14 14 15 13 14
5 4 3 4 3 7 7 5 1 0 1 2 5 4 3 4 5 6 4 2 4 6 7 7 8 9 10 10 11 11 11 11 11 11 11 11 10 10 11 13 13 12 12 11
6 7 4 3 5 4 1 5 4 4 4 4 4 5 8 12 11 7 1 4 7 8 8 8 8 9 9 9 10 10 10 11 11 11 10 9 11 10 10 10 11 11 10 9
5 6 5 4 4 6 5 4 3 3 2 3 4 4 6 13 9 3 3 7 8 8 8 8 8 9 9 9 10 10 11 12 12 12 11 11 10 10 9 8 8 8 7 7
3 5 5 2 1 2 3 5 6 4 4 3 2 3 4 6 4 3 6 8 7 7 6 7 7 8 9 10 10 11 11 12 12 12 11 10 10 9 8 7 6 5 4 3
5 6 6 4 3 4 5 5 5 2 3 4 3 3 3 3 4 4 6 8 7 6 6 6 7 8 9 10 10 10 11 12 12 12 11 10 10 9 8 7 5 3 2 1
4 3 2 4 3 7 6 9 10 6 5 5 6 3 3 4 6 7 8 7 6 5 6 7 7 8 9 9 10 10 11 11 12 11 11 11 11 10 8 7 6 5 4 5
2 3 2 1 2 4 5 9 13 12 9 7 5 5 8 8 8 8 7 7 6 5 6 7 7 8 8 9 9 10 10 11 11 10 11 11 10 10 10 9 9 9 9 9
3 3 3 1 2 4 6 10 13 14 14 14 12 11 11 8 6 7 7 6 5 4 5 6 6 7 8 9 9 9 10 10 9 10 10 10 10 11 11 11 11 11 11 11
5 5 3 2 2 3 8 12 16 11 12 12 14 10 8 7 8 8 6 4 3 2 3 5 5 6 7 7 8 8 8 8 9 9 9 10 10 11 11 11 11 11 11 12
7 5 2 2 2 6 1 2 9 14 14 14 12 12 11 10 9 5 2 1 0 1 2 3 4 5 5 6 6 6 7 8 8 9 9 9 9 10 10 11 11 11 10 11
5 5 3 2 3 6 5 4 7 8 7 13 16 15 13 8 5 3 3 2 2 2 2 2 3 3 4 5 6 6 7 8 9 9 8 8 8 9 10 10 10 10 10 11
4 4 4 4 4 4 0 3 6 5 3 5 9 10 7 3 4 2 6 5 4 4 3 2 3 3 4 5 5 6 7 8 8 8 8 8 8 9 10 10 10 9 10 10
6 5 7 7 6 6 2 5 7 5 3 4 4 5 5 5 3 4 8 7 6 5 4 4 3 3 3 4 5 6 7 7 6 7 8 9 9 9 9 9 9 9 9 10
11 8 8 7 8 7 5 8 7 1 2 1 3 4 5 5 3 6 8 8 7 7 6 5 4 3 3 3 5 6 6 5 5 7 8 8 8 7 7 9 8 8 8 8
10 9 6 8 7 0 4 5 1 0 2 2 3 3 4 5 6 8 9 9 8 8 7 6 6 5 3 3 4 5 4 5 6 7 8 8 8 7 7 7 7 6 5 5
7 7 6 6 8 6 5 4 3 3 3 3 3 4 5 6 7 9 9 9 9 9 8 7 7 6 5 4 4 5 6 6 7 8 7 7 7 7 7 5 5 4 4 3
7 9 8 8 5 3 4 4 2 2 2 3 3 4 6 7 8 9 10 11 10 9 8 8 8 8 7 6 6 5 6 7 8 7 6 6 6 6 6 6 5 5 5 4
7 8 9 8 6 5 4 3 0 2 3 4 4 4 5 7 8 9 10 10 10 10 10 9 9 9 8 8 7 6 6 7 7 7 6 5 4 4 4 5 5 8 6 7
Wind_Direction
175 183 189 188 193 213 185 188 189 191 167 204 227 243 250 254 254 258 262 266 269 274 291 305 307 300 285 273 264 257 251 244 237 232 226 224 226 228 228 226 225 224 222 219
169 197 190 180 179 174 178 184 179 158 158 218 241 257 260 262 259 265 268 267 272 295 14 25 14 4 338 310 291 275 261 254 244 236 233 231 231 232 231 229 228 225 223 220
176 174 170 174 177 167 179 188 178 159 151 160 274 253 188 127 121 103 97 103 92 70 50 34 27 23 13 356 331 307 290 274 260 251 244 239 237 236 233 230 228 226 223 221
146 155 170 179 184 181 172 170 161 158 190 190 265 246 147 126 119 105 103 96 81 59 41 31 23 18 12 359 343 326 311 295 281 264 247 238 234 233 233 232 232 229 224 222
137 167 176 182 184 183 142 123 128 145 191 230 216 238 164 152 140 124 112 92 65 39 23 17 11 3 360 355 346 335 325 315 302 281 260 251 245 244 244 240 238 235 228 222
79 69 154 159 131 135 124 105 89 97 208 237 211 217 189 171 156 143 132 97 45 20 10 6 4 358 356 353 348 340 332 325 318 301 280 258 253 251 249 245 243 240 234 226
85 64 58 106 110 112 149 153 159 185 208 224 154 219 218 152 157 163 157 84 8 0 359 358 358 355 352 348 345 338 333 326 324 314 298 281 267 259 254 251 247 244 240 233
125 110 62 99 141 160 174 194 206 202 200 174 177 225 159 157 199 222 235 269 323 348 356 354 353 349 346 343 341 338 333 326 323 318 309 297 282 269 262 256 252 249 245 240
130 107 70 68 100 150 160 190 300 52 105 224 200 217 240 191 188 193 207 278 340 350 352 352 351 349 345 343 341 337 332 326 324 319 312 303 293 280 272 268 262 256 251 248
117 120 119 124 108 53 125 145 159 194 211 219 195 202 176 168 168 175 206 345 346 349 351 352 352 350 348 345 342 341 338 331 326 322 316 309 304 297 287 278 269 261 255 247
111 120 132 152 183 171 150 163 187 184 241 241 201 159 151 160 161 170 338 342 341 345 348 350 350 350 350 351 351 350 348 343 339 333 325 318 314 310 302 289 280 271 259 245
105 119 127 128 34 275 222 196 184 198 200 217 256 147 129 178 195 264 316 334 340 346 349 351 353 355 358 358 357 354 350 347 342 336 332 329 324 321 316 308 301 290 272 250
134 130 128 150 191 191 208 196 194 151 142 187 219 156 129 190 234 290 317 331 341 345 351 354 1 3 2 360 358 355 353 350 346 345 344 344 343 340 337 336 338 343 358 69
122 136 192 188 163 170 191 195 188 178 193 205 230 239 209 235 291 320 332 337 341 349 353 358 1 5 5 1 358 356 356 355 353 355 1 4 2 2 6 12 23 36 53 76
128 125 117 107 119 164 201 200 198 207 215 221 233 248 265 287 305 313 322 329 336 346 356 1 2 3 3 2 0 360 360 1 1 7 14 15 14 21 30 37 44 53 61 69
128 129 139 181 196 219 241 227 215 220 229 239 257 273 271 283 289 301 316 324 329 345 355 1 4 3 3 3 2 3 5 5 10 20 23 25 30 36 42 47 54 59 64 71
157 147 165 190 177 248 253 229 211 208 213 220 233 244 267 286 301 314 316 309 319 347 358 5 7 7 5 4 5 9 10 13 24 31 32 35 41 46 47 54 60 64 69 74
164 158 165 180 196 240 236 145 202 216 225 221 236 253 270 289 307 304 275 247 181 35 18 21 15 15 13 14 19 22 26 31 38 40 40 43 50 56 58 61 63 64 68 73
176 170 176 206 250 273 263 198 181 193 231 225 233 254 272 293 290 232 177 161 132 115 77 49 37 35 32 32 33 41 44 44 45 43 44 49 58 64 65 65 64 65 70 71
161 185 202 210 247 252 153 139 171 181 204 181 210 243 267 261 264 173 156 160 149 136 124 99 81 73 62 54 56 61 56 53 47 45 50 56 63 68 70 70 69 69 73 75
173 188 210 221 245 267 240 145 156 196 166 156 209 242 246 231 266 121 150 157 153 147 139 124 107 91 75 76 82 73 65 55 51 57 60 61 65 71 76 77 76 79 82 83
187 190 200 205 224 245 156 161 191 202 78 210 241 242 240 231 178 161 168 166 163 158 152 144 133 115 94 98 103 93 77 72 74 75 71 67 68 73 80 86 85 87 93 93
203 203 198 209 223 346 167 195 206 335 264 268 255 242 229 217 203 189 184 178 175 170 163 159 153 143 127 120 127 118 113 111 103 93 85 82 81 78 81 86 90 89 88 90
208 203 214 235 244 242 236 239 260 260 261 271 257 244 225 224 210 194 187 182 180 177 173 169 166 162 155 145 137 132 133 131 120 108 100 95 91 87 82 79 78 82 84 91
189 180 205 233 245 238 223 208 220 272 281 285 271 243 234 227 215 201 193 189 184 180 177 177 178 172 165 159 150 146 147 143 128 117 110 104 97 98 91 81 71 72 63 53
190 189 195 215 206 203 183 136 27 303 305 309 293 266 238 225 220 204 199 191 185 181 178 180 182 176 169 166 160 158 159 156 141 133 130 123 118 111 107 105 95 73 73 77
Height
1477 1480 1479 1479 1482 1482 1485 1489 1492 1495 1501 1501 1500 1499 1498 1499 1500 1499 1499 1499 1500 1500 1500 1498 1498 1498 1498 1499 1500 1501 1502 1504 1505 1506 1506 1507 1507 1509 1510 1511 1512 1513 1515 1516
1477 1476 1475 1480 1484 1486 1487 1489 1492 1498 1501 1500 1499 1497 1494 1495 1496 1497 1497 1497 1497 1497 1497 1495 1494 1493 1493 1494 1494 1495 1496 1497 1498 1499 1500 1500 1501 1502 1503 1504 1505 1506 1508 1509
1470 1472 1477 1481 1484 1486 1488 1488 1491 1495 1501 1503 1500 1490 1491 1495 1496 1496 1496 1496 1496 1495 1495 1494 1492 1491 1490 1489 1489 1489 1490 1490 1491 1492 1493 1493 1493 1494 1495 1495 1496 1498 1500 1501
1472 1474 1477 1480 1483 1483 1489 1491 1493 1496 1495 1494 1498 1487 1487 1492 1494 1495 1496 1496 1496 1495 1494 1492 1491 1490 1488 1487 1486 1485 1485 1485 1485 1485 1485 1485 1485 1485 1486 1488 1489 1490 1491 1492
1474 1475 1476 1479 1481 1484 1490 1494 1496 1497 1495 1496 1496 1491 1482 1491 1492 1494 1495 1496 1495 1494 1493 1491 1489 1487 1486 1485 1483 1482 1481 1480 1480 1479 1479 1479 1479 1479 1481 1482 1482 1483 1483 1484
1477 1480 1480 1482 1486 1488 1494 1498 1500 1500 1498 1499 1493 1490 1481 1485 1488 1492 1495 1495 1495 1494 1492 1490 1488 1486 1484 1482 1480 1479 1477 1476 1475 1474 1473 1473 1472 1473 1474 1474 1474 1475 1476 1476
1481 1484 1485 1486 1490 1495 1494 1496 1499 1499 1500 1489 1498 1494 1481 1485 1489 1492 1493 1494 1494 1492 1490 1488 1486 1483 1481 1479 1477 1475 1473 1471 1470 1469 1468 1467 1466 1466 1466 1467 1467 1468 1468 1468
1477 1484 1488 1488 1488 1492 1493 1491 1488 1485 1483 1484 1500 1489 1481 1487 1490 1492 1493 1493 1492 1491 1489 1486 1483 1480 1477 1475 1472 1470 1468 1466 1465 1463 1462 1461 1460 1459 1458 1459 1459 1460 1460 1461
1471 1484 1489 1489 1490 1490 1492 1491 1492 1487 1490 1485 1480 1484 1484 1486 1488 1490 1491 1491 1490 1488 1486 1483 1480 1477 1474 1471 1468 1466 1463 1461 1459 1457 1456 1454 1453 1452 1452 1452 1452 1452 1453 1454
1471 1483 1489 1490 1491 1493 1491 1491 1494 1493 1487 1475 1474 1476 1473 1482 1484 1487 1488 1487 1486 1485 1482 1480 1477 1474 1471 1468 1465 1462 1459 1457 1454 1452 1450 1448 1447 1446 1445 1445 1445 1445 1446 1447
1471 1479 1490 1490 1489 1488 1493 1494 1491 1488 1488 1480 1471 1471 1471 1475 1480 1483 1484 1484 1483 1481 1479 1476 1474 1471 1468 1465 1462 1459 1456 1453 1450 1448 1446 1444 1442 1441 1440 1439 1439 1439 1440 1440
1473 1476 1486 1491 1493 1491 1489 1488 1489 1488 1492 1490 1480 1475 1476 1478 1480 1482 1482 1481 1480 1478 1476 1474 1471 1468 1465 1462 1459 1456 1453 1450 1447 1445 1442 1440 1438 1437 1436 1435 1435 1434 1435 1435
1473 1477 1485 1490 1494 1493 1490 1490 1490 1491 1491 1490 1481 1474 1477 1478 1479 1480 1479 1478 1477 1476 1473 1471 1468 1465 1462 1459 1457 1454 1451 1448 1445 1442 1440 1437 1435 1433 1432 1431 1431 1431 1431 1431
1473 1474 1476 1474 1474 1481 1486 1487 1489 1491 1488 1484 1479 1474 1474 1475 1475 1476 1476 1475 1474 1473 1471 1468 1466 1463 1460 1457 1455 1452 1449 1446 1443 1440 1437 1435 1432 1431 1429 1428 1427 1428 1428 1428
1472 1477 1482 1480 1481 1482 1483 1483 1486 1487 1483 1481 1475 1477 1472 1472 1473 1474 1473 1472 1471 1470 1468 1466 1463 1461 1458 1456 1453 1450 1447 1445 1442 1439 1436 1433 1431 1429 1428 1427 1426 1426 1426 1427
1473 1478 1481 1483 1482 1483 1482 1479 1480 1482 1480 1479 1478 1476 1469 1470 1472 1471 1470 1470 1469 1468 1466 1464 1462 1459 1457 1455 1452 1449 1446 1443 1441 1438 1435 1433 1431 1429 1428 1427 1426 1426 1426 1426
1473 1478 1481 1477 1481 1481 1475 1469 1472 1474 1473 1474 1474 1470 1467 1468 1468 1468 1468 1467 1467 1466 1464 1462 1460 1458 1456 1454 1451 1448 1446 1444 1441 1438 1436 1434 1432 1430 1429 1428 1428 1427 1427 1427
1472 1475 1478 1477 1480 1480 1462 1463 1464 1466 1467 1469 1467 1465 1465 1466 1466 1466 1465 1465 1465 1464 1462 1461 1460 1458 1456 1454 1452 1449 1447 1445 1442 1440 1437 1435 1433 1432 1431 1430 1430 1429 1429 1429
1471 1473 1475 1476 1473 1463 1459 1461 1463 1464 1463 1462 1464 1463 1463 1464 1464 1462 1462 1462 1462 1462 1461 1460 1459 1458 1456 1454 1453 1451 1449 1447 1444 1442 1440 1438 1437 1436 1435 1434 1434 1434 1434 1434
1473 1472 1474 1473 1472 1462 1455 1457 1460 1462 1458 1457 1460 1460 1461 1463 1459 1459 1461 1461 1461 1461 1460 1459 1459 1458 1457 1456 1454 1453 1451 1449 1448 1446 1444 1443 1441 1440 1439 1439 1439 1439 1439 1439
1472 1473 1472 1470 1468 1457 1455 1457 1460 1461 1455 1457 1458 1458 1459 1459 1459 1459 1459 1459 1459 1460 1460 1459 1459 1459 1458 1457 1457 1456 1454 1453 1451 1450 1449 1447 1446 1445 1445 1444 1444 1444 1445 1445
1461 1464 1465 1464 1465 1458 1454 1456 1456 1454 1455 1455 1456 1456 1456 1456 1456 1456 1457 1457 1458 1459 1459 1459 1459 1459 1459 1459 1459 1458 1457 1456 1455 1454 1453 1452 1451 1450 1450 1449 1449 1449 1449 1449
1454 1453 1453 1454 1453 1451 1452 1452 1453 1454 1454 1454 1454 1454 1454 1453 1453 1454 1454 1455 1456 1457 1458 1459 1459 1460 1460 1460 1460 1460 1459 1458 1458 1457 1456 1455 1454 1454 1454 1453 1453 1453 1452 1452
1450 1452 1452 1451 1448 1449 1450 1451 1451 1451 1451 1451 1451 1451 1451 1451 1451 1451 1451 1453 1454 1455 1457 1458 1459 1459 1460 1460 1460 1460 1460 1459 1459 1459 1458 1458 1457 1457 1456 1456 1455 1455 1454 1453
1442 1447 1447 1446 1446 1447 1447 1448 1449 1449 1449 1449 1449 1448 1448 1448 1447 1448 1448 1449 1451 1453 1455 1456 1457 1458 1459 1460 1460 1460 1460 1460 1460 1460 1460 1459 1459 1459 1458 1457 1457 1456 1455 1454
1440 1441 1441 1439 1441 1443 1444 1445 1446 1446 1446 1446 1445 1445 1444 1444 1444 1444 1445 1446 1448 1450 1452 1453 1455 1457 1458 1459 1459 1460 1460 1460 1461 1460 1460 1460 1460 1459 1459 1458 1457 1456 1455 1454